Regional Weather Roundup
Issued by NWS Kansas City/Pleasant Hill, MO

Home | Current Version | Previous Version | Graphics & Text | Print | Product List | Glossary Off
Versions: 1 2 3 4 5 6 7 8 9 10 11 12 13 14 15 16 17 18 19 20 21 22 23 24 25 26 27 28 29 30 31 32 33 34 35 36 37 38 39 40 41 42 43 44 45 46 47 48 49 50

000
ASUS43 KEAX 261804
RWREAX

WEATHER ROUNDUP FOR EASTERN KANSAS AND NORTHWEST MISSOURI
NATIONAL WEATHER SERVICE KANSAS CITY/PLEASANT HILL MO
1200 PM CST WED NOV 26 2014

KSZ040-057-103>105-MOZ028-029-037-043-261900-
...KANSAS CITY METROPOLITAN AREA...

CITY           SKY/WX    TMP DP  RH WIND       PRES   REMARKS
K.C. INTL      CLOUDY    39  31  72 NW23G32   30.00R WCI  28
6HR MIN TEMP:  35; 6HR MAX TEMP:  41;

K.C. DOWNTOWN  CLOUDY    42  31  64 NW18G26   30.00R WCI  34
6HR MIN TEMP:  36; 6HR MAX TEMP:  43; 6HR PCP: TRACE;

LEES SUMMIT    CLOUDY    41  31  67 NW16G28   29.99S WCI  33
6HR MIN TEMP:  34; 6HR MAX TEMP:  42;

OLATHE - IXD   CLOUDY    42  31  64 NW17      30.02R WCI  34
6HR MIN TEMP:  35; 6HR MAX TEMP:  42;

OLATHE - OJC   CLOUDY    41  30  65 NW16G30   30.00S WCI  33
6HR MIN TEMP:  36; 6HR MAX TEMP:  42;

LAWRENCE       PTSUNNY   42  28  57 NW26G35   30.04R WCI  32

$$

MOZ001>008-011>017-020>025-030>033-038>040-044>046-053-054-261900-
...NORTHERN AND CENTRAL MISSOURI...

CITY           SKY/WX    TMP DP  RH WIND       PRES   REMARKS
ST. JOSEPH     CLOUDY    38  31  76 NW28G36   30.00R WCI  26
6HR MIN TEMP:  37; 6HR MAX TEMP:  40; 6HR PCP: TRACE;

MOSBY          CLOUDY    41  32  70 W15G23    29.98S WCI  33
WARRENSBURG    CLOUDY    41  32  70 W9G17     29.98S
WHITEMAN AFB   PTSUNNY   42  33  71 NW13      29.96S
6HR MIN TEMP:  33; 6HR MAX TEMP:  42; 6HR PCP:  0.01;

CLINTON        PTSUNNY   45  36  70 NW17      29.99S
SEDALIA        CLOUDY    43  32  65 NW15G23   29.96S
6HR MIN TEMP:  34; 6HR MAX TEMP:  44; 6HR PCP:  0.04;

WARSAW         NOT AVBL
MARSHALL       CLOUDY    43  37  81 W12G17    29.96S
CHILLICOTHE      N/A     39  34  82 W8        29.93F WCI  33
6HR MIN TEMP:  34; 6HR MAX TEMP:  40;

MOBERLY        CLOUDY    37  32  81 SW7       29.93F WCI  32
KIRKSVILLE     CLOUDY    33  33 100 S8        29.91F FOG     WCI  26
6HR MIN TEMP:  29; 6HR MAX TEMP:  33; 6HR PCP:  0.08;


$$

MOZ041-047>049-056>058-063>065-088>090-097-261900-
...EASTERN AND SOUTHERN MISSOURI...

CITY           SKY/WX    TMP DP  RH WIND       PRES   REMARKS
ST. LOUIS INTL LGT SNOW  36  28  73 SE12      29.99F WCI  28
6HR MIN TEMP:  30; 6HR MAX TEMP:  36; 6HR PCP: TRACE;

SPIRIT OF STL  LGT SNOW  34  30  86 SE3       29.98F VSB 3/4
COLUMBIA       CLOUDY    40  36  86 W7        29.94F
JEFFERSON CITY CLOUDY    39  36  89 SW8       29.96F WCI  33
MEXICO         CLOUDY   N/A N/A N/A S5        29.94F
ROLLA          LGT SNOW  33  32  96 SW9       29.93F FOG     WCI  25
LEBANON        CLOUDY    39  36  87 W13       29.96F WCI  32
OSAGE BEACH    CLOUDY    39  34  81 W6        29.96F WCI  35
SPRINGFIELD    PTSUNNY   45  34  65 W16G24    29.99S
BRANSON        MOSUNNY   46  32  57 W10G17    30.01F
JOPLIN         PTSUNNY   47  27  45 NW16G29   30.05S
WEST PLAINS    CLOUDY    36  33  89 W8        29.96F WCI  30

$$

IAZ060-094-KSZ022-034>040-054-083-096-NEZ052-066-093-261900-
...KANSAS...SOUTHEAST NEBRASKA AND IOWA...

CITY           SKY/WX    TMP DP  RH WIND       PRES   REMARKS
TOPEKA         PTSUNNY   43  27  53 NW25G36   30.08R WCI  33
6HR MIN TEMP:  39; 6HR MAX TEMP:  46;

MANHATTAN      CLOUDY    39  25  57 N12G25    30.14R WCI  32
EMPORIA        FAIR      44  23  43 NW23G33   30.08S
CHANUTE        CLOUDY    47  25  42 NW24G35   30.08R
WICHITA        FAIR      48  22  35 N25G37    30.15R
OMAHA          FLURRIES  31  26  82 N32G43    30.08R WCI  16
LINCOLN        CLOUDY    30  22  72 N30G40    30.14R WCI  15
FALLS CITY     CLOUDY    35  29  78 NW25G39   30.04R WCI  23
LAMONI         CLOUDY    33  31  92 NW22      29.90R WCI  21
DES MOINES     LGT SNOW  31  27  85 NE8       29.96R FOG     WCI  23

$$



USA.gov is the U.S. government's official web portal to all federal, state and local government web resources and services.